Día,Nuevos,Activos,Recuperados,Fallecidos
07/07/2021,2,127,1785,41
08/07/2021,9,103,1818,41
09/07/2021,11,107,1825,41
10/07/2021,13,120,1825,41
11/07/2021,15,135,1825,41
12/07/2021,4,124,1840,41
13/07/2021,25,140,1849,41
14/07/2021,17,146,1860,41
15/07/2021,16,150,1872,41
16/07/2021,6,156,1872,41
17/07/2021,3,133,1898,41
18/07/2021,7,138,1900,41
19/07/2021,1,130,1909,41
20/07/2021,2,124,1917,41
21/07/2021,6,110,1937,41
22/07/2021,10,110,1947,41
23/07/2021,7,103,1961,41
24/07/2021,3,94,1973,41
25/07/2021,2,96,1973,41
26/07/2021,1,95,1975,41
27/07/2021,4,98,1976,41
28/07/2021,4,87,1991,41
29/07/2021,5,83,2000,41
30/07/2021,6,86,2003,41
31/07/2021,1,79,2011,41
01/08/2021,2,80,2012,41
02/08/2021,3,82,2013,41
03/08/2021,1,83,2013,41
04/08/2021,4,78,2022,41
05/08/2021,6,79,2027,41
06/08/2021,3,76,2033,41
07/08/2021,3,77,2035,41
08/08/2021,7,83,2036,41
09/08/2021,6,90,2036,41
10/08/2021,7,97,2036,41
11/08/2021,7,102,2038,41
12/08/2021,7,107,2040,41
13/08/2021,6,101,2052,41
14/08/2021,1,102,2052,41
15/08/2021,8,108,2052,41
16/08/2021,18,126,2052,41
17/08/2021,5,131,2052,41
18/08/2021,4,123,2063,42
19/08/2021,16,136,2066,42
20/08/2021,41,177,2066,42
21/08/2021,12,189,2066,42
22/08/2021,2,189,2068,42
23/08/2021,4,189,2072,42
24/08/2021,18,193,2085,42
25/08/2021,17,209,2085,43
26/08/2021,22,227,2089,43
27/08/2021,16,239,2093,43
28/08/2021,28,264,2096,43
29/08/2021,11,273,2094,43
30/08/2021,11,284,2094,43
31/08/2021,21,289,2110,43
01/09/2021,17,302,2113,43
02/09/2021,34,336,2113,43
03/09/2021,18,354,2113,43
04/09/2021,21,239,2249,43
05/09/2021,25,264,2249,43
06/09/2021,16,278,2251,43
07/09/2021,23,254,2298,43
08/09/2021,35,287,2299,44
09/09/2021,25,251,2360,44
10/09/2021,32,281,2361,44
11/09/2021,37,318,2362,44
12/09/2021,19,337,2362,44
13/09/2021,13,349,2363,44
14/09/2021,11,302,2421,44
15/09/2021,21,282,2462,44
16/09/2021,8,290,2462,44
17/09/2021,27,316,2463,44
18/09/2021,14,330,2464,44
19/09/2021,38,368,2464,44
20/09/2021,11,376,2466,45
21/09/2021,15,390,2467,45
22/09/2021,7,395,2469,45
23/09/2021,40,434,2470,45
24/09/2021,30,462,2472,45
25/09/2021,31,494,2472,45
26/09/2021,40,532,2474,45
27/09/2021,17,544,2478,46
28/09/2021,18,562,2478,46
29/09/2021,10,266,2784,46
30/09/2021,39,304,2785,46
01/10/2021,17,319,2787,46
02/10/2021,17,336,2787,46
03/10/2021,10,345,2788,46
04/10/2021,22,277,2878,46
05/10/2021,7,230,2932,46
06/10/2021,14,223,3222,46
07/10/2021,18,200,3240,46
08/10/2021,10,209,3250,46
09/10/2021,8,194,3258,46
10/10/2021,2,196,3260,46
11/10/2021,2,180,3262,46
12/10/2021,14,191,3276,46
13/10/2021,12,161,3288,46
14/10/2021,10,165,3298,46
15/10/2021,9,161,3308,46
16/10/2021,8,169,3316,46
17/10/2021,1,169,3317,46
18/10/2021,2,162,3319,46
19/10/2021,8,161,3327,46
20/10/2021,6,157,3333,46
21/10/2021,4,141,3337,47
22/10/2021,5,142,3342,47
23/10/2021,4,145,3154,47
24/10/2021,3,145,3157,47
25/10/2021,3,148,3157,47
26/10/2021,8,156,3156,48
27/10/2021,14,169,3157,48
28/10/2021,10,179,3157,48
29/10/2021,7,137,3206,48
30/10/2021,7,143,3398,48
31/10/2021,3,144,3401,48
01/11/2021,3,147,3404,48
02/11/2021,4,151,3408,48
03/11/2021,6,157,3414,48
04/11/2021,10,124,3424,48
05/11/2021,7,127,3431,48
06/11/2021,2,126,3433,48
07/11/2021,0,125,3433,48
08/11/2021,0,116,3433,48
09/11/2021,4,107,3437,49
10/11/2021,2,102,3439,49
11/11/2021,4,103,3443,49
12/11/2021,8,109,3451,49
13/11/2021,3,111,3454,49
14/11/2021,1,109,3455,49
15/11/2021,1,105,3456,49
16/11/2021,0,64,3456,49
17/11/2021,1,57,3457,49
18/11/2021,2,53,3459,49
19/11/2021,1,49,3460,49
20/11/2021,4,48,3464,49
21/11/2021,5,52,3469,49
22/11/2021,2,44,3471,49
23/11/2021,6,49,3477,49
24/11/2021,5,50,3482,49
25/11/2021,1,48,3483,49
26/11/2021,1,48,3484,49
27/11/2021,0,43,3484,49
28/11/2021,0,41,3484,49
29/11/2021,0,39,3484,50
30/11/2021,0,37,3484,50
01/12/2021,3,39,3487,50
02/12/2021,1,38,3488,50
03/12/2021,1,17,3489,50
04/12/2021,1,15,3490,50
05/12/2021,2,15,3492,50
06/12/2021,1,14,3493,50
07/12/2021,0,12,3493,50
08/12/2021,0,12,3493,50
09/12/2021,0,12,3493,50
10/12/2021,4,13,3497,50
11/12/2021,4,17,3501,50
12/12/2021,5,22,3506,50
13/12/2021,1,23,3507,50
14/12/2021,4,25,3511,50
15/12/2021,0,25,3511,50
16/12/2021,0,24,3511,50
17/12/2021,2,26,3513,50
18/12/2021,1,27,3514,50
19/12/2021,1,27,3515,50
20/12/2021,0,26,3515,50
21/12/2021,1,23,3516,50
22/12/2021,1,23,3517,50
23/12/2021,1,15,3518,50
24/12/2021,2,16,3520,50
25/12/2021,4,19,3524,50
26/12/2021,1,19,3525,50
27/12/2021,1,14,3526,50
28/12/2021,3,17,3529,50
29/12/2021,7,24,3536,50
30/12/2021,9,33,3545,50
31/12/2021,9,39,3554,50
01/01/2022,5,44,3559,50
02/01/2022,7,51,3566,50
03/01/2022,3,54,3569,50
04/01/2022,13,66,3582,50
05/01/2022,17,71,3599,50
06/01/2022,9,78,3608,50
07/01/2022,9,79,3488,50
08/01/2022,21,100,3488,50
09/01/2022,9,109,3488,50
10/01/2022,14,123,3488,50
11/01/2022,27,150,3488,50
12/01/2022,23,159,3502,50
13/01/2022,30,177,3514,50
14/01/2022,23,177,3537,50
15/01/2022,24,201,3537,50
16/01/2022,7,208,3537,50
17/01/2022,12,203,3554,50
18/01/2022,22,214,3829,50
19/01/2022,33,245,3862,50
20/01/2022,38,283,3900,50
21/01/2022,21,259,3921,50
22/01/2022,38,294,3959,50
23/01/2022,38,313,3981,50
24/01/2022,12,325,3993,50
25/01/2022,24,349,4017,50
26/01/2022,58,407,4075,50
27/01/2022,42,449,4117,50
28/01/2022,51,492,4168,50
29/01/2022,42,534,4210,50
30/01/2022,34,567,4244,50
31/01/2022,34,601,4278,50
01/02/2022,49,644,4327,50
02/02/2022,57,701,4384,50
03/02/2022,29,728,4413,50
04/02/2022,40,768,4453,50
05/02/2022,16,782,4469,50
06/02/2022,15,797,4484,50
07/02/2022,15,809,4499,52
08/02/2022,47,855,4546,52
09/02/2022,36,883,4582,53
10/02/2022,28,911,4610,53
11/02/2022,30,925,4640,53
12/02/2022,28,953,4668,53
13/02/2022,8,961,4676,53
14/02/2022,16,964,4692,54
15/02/2022,37,1001,4729,54
16/02/2022,28,560,4757,54
17/02/2022,17,435,4774,54
18/02/2022,23,374,4797,54
19/02/2022,25,399,4822,54
20/02/2022,8,406,4830,54
21/02/2022,9,414,4839,54
22/02/2022,32,443,4871,54
23/02/2022,12,339,4883,54
24/02/2022,31,307,4914,54
25/02/2022,9,226,4923,54
26/02/2022,18,244,4941,54
27/02/2022,6,242,4947,54
28/02/2022,9,223,4956,54
01/03/2022,10,187,4966,54
02/03/2022,12,159,4978,54
03/03/2022,18,148,4996,54
04/03/2022,12,159,5008,54
05/03/2022,13,157,5021,54
06/03/2022,5,159,5026,54
07/03/2022,7,136,5033,54
08/03/2022,9,108,5042,54
09/03/2022,14,105,5056,54
10/03/2022,8,109,5064,54
11/03/2022,11,103,5075,54
12/03/2022,9,107,5084,54
13/03/2022,11,116,5095,54
14/03/2022,3,117,5098,54
15/03/2022,8,113,5106,54
16/03/2022,9,120,5115,54
17/03/2022,13,131,5128,54
18/03/2022,14,127,5142,54
19/03/2022,7,134,5149,54
20/03/2022,6,136,5155,54
21/03/2022,6,136,5161,54
22/03/2022,0,111,5161,54
23/03/2022,6,111,5167,54
24/03/2022,19,114,5186,54
25/03/2022,2,113,5188,54
26/03/2022,4,114,5192,54
27/03/2022,5,117,5197,54
28/03/2022,5,112,5202,54
29/03/2022,5,92,5207,54
30/03/2022,7,81,5214,54
31/03/2022,3,70,5217,54
01/04/2022,6,72,5223,55
02/04/2022,7,74,5230,55
03/04/2022,4,72,5234,55
04/04/2022,2,65,5236,55
05/04/2022,4,48,5240,55
06/04/2022,2,33,5242,55
07/04/2022,1,34,5243,55
08/04/2022,4,32,5247,55
09/04/2022,2,34,5249,55
10/04/2022,0,30,5249,55
11/04/2022,2,32,5251,55
12/04/2022,0,31,5251,55
13/04/2022,4,35,5255,55
14/04/2022,2,25,5257,55
15/04/2022,3,28,5260,55
16/04/2022,0,21,5260,55
17/04/2022,2,21,5262,55
18/04/2022,0,17,5262,55
19/04/2022,3,14,5265,55
20/04/2022,0,14,5265,55
21/04/2022,5,19,5271,55
22/04/2022,0,17,5271,55
23/04/2022,5,22,5276,55
24/04/2022,0,22,5276,55
25/04/2022,5,23,5281,55
26/04/2022,5,25,5286,55
27/04/2022,3,28,5289,55
28/04/2022,2,30,5291,55
29/04/2022,3,28,5294,55
30/04/2022,4,32,5298,55
01/05/2022,1,30,5299,55
02/05/2022,2,23,5301,55
03/05/2022,1,15,5302,55
04/05/2022,5,20,5307,55
05/05/2022,12,28,5319,55
06/05/2022,7,27,5326,55
07/05/2022,7,34,5333,55
08/05/2022,6,40,5339,55
09/05/2022,1,37,5341,55
10/05/2022,5,41,5346,55
11/05/2022,8,44,5354,55
12/05/2022,6,50,5360,55
13/05/2022,7,35,5367,55
14/05/2022,12,47,5379,55
15/05/2022,2,48,5381,56
16/05/2022,0,35,5381,56
17/05/2022,7,39,5388,56
18/05/2022,10,49,5398,56
19/05/2022,8,47,5406,56
20/05/2022,18,64,5424,56
21/05/2022,4,68,5428,56
22/05/2022,2,70,5430,56
23/05/2022,8,70,5438,56
24/05/2022,14,83,5452,56
25/05/2022,14,92,5466,56
26/05/2022,18,83,5484,56
27/05/2022,7,89,5491,56
28/05/2022,12,99,5503,56
29/05/2022,14,113,5517,56
30/05/2022,10,110,5527,56